Home > Weather > Sydney > Past weeks

Flag for Australia Weather for the Past 2 Weeks in Sydney, New South Wales, Australia

Now
59 °F

Sunny.


Feels Like: 58 °F
Forecast: 54 / 75 °F
Wind: 8 mph from Northwest

Location: Sydney Airport

Current Time: May 6, 2016 at 8:18:47 AM

Latest Report: May 6, 2016 at 7:30 AM


Visibility: 10 mi

Pressure: 30.07 "Hg

Humidity: 68%

Dew Point: 48 °F

Location of SydneyLocation

Historic Weather in Sydney — Graph

°F

Sydney Temperature Yesterday

Maximum temperature yesterday: 75 °F (at 1:00 PM)
Minimum temperature yesterday: 57 °F (at 3:00 AM)
Average temperature yesterday: 65 °F

High & Low Weather Summary for the Past Weeks

 TemperatureHumidityPressure
High81 °F (Apr 30, 2:30 PM)94% (Apr 22, 3:00 AM)30.45 "Hg (Apr 22, 3:00 AM)
Low54 °F (May 3, 5:00 AM)18% (May 3, 4:00 PM)29.68 "Hg (May 3, 4:00 PM)
Average67 °F69%30.13 "Hg
* Reported Apr 21 7:30 AM — May 6 7:00 AM, Sydney, Weather by CustomWeather, © 2016

Note: Actual official high and low records may vary slightly from our data, if they occured in-between our weather recording intervals... More about our weather records

Advertising

Sydney Weather History for the Previous 24 Hours

Scroll right to see more
 ConditionsComfort  
Time TempWeatherWind HumidityBarometerVisibility
7:00 AM
Fri, May 6
59 °FSunny.7 mph72%30.07 "Hg10 mi
6:30 AM57 °FSunny.8 mph77%30.07 "Hg10 mi
6:00 AM57 °FSunny.8 mph77%30.04 "Hg10 mi
5:30 AM57 °FClear.8 mph77%30.04 "Hg10 mi
5:00 AM57 °FClear.9 mph82%30.04 "Hg10 mi
4:00 AM57 °FClear.8 mph88%30.04 "Hg10 mi
3:30 AM57 °FClear.8 mph88%30.04 "Hg10 mi
3:00 AM57 °FClear.8 mph88%30.04 "Hg10 mi
2:00 AM59 °FClear.9 mph88%30.04 "Hg10 mi
1:30 AM59 °FClear.8 mph88%30.04 "Hg10 mi
1:00 AM61 °FClear.8 mph83%30.04 "Hg10 mi
12:30 AM61 °FClear.6 mph88%30.04 "Hg10 mi
12:00 AM63 °FClear.7 mph83%30.04 "Hg10 mi
11:30 PM
Thu, May 5
63 °FClear.7 mph83%30.04 "Hg10 mi
11:00 PM63 °FClear.6 mph88%30.04 "Hg10 mi
10:30 PM64 °FClear.6 mph83%30.04 "Hg10 mi
10:00 PM64 °FClear.7 mph83%30.04 "Hg10 mi
9:30 PM66 °FClear.6 mph78%30.04 "Hg10 mi
9:00 PM64 °FClear.1 mph83%30.04 "Hg10 mi
8:30 PM68 °FClear.1 mph78%30.04 "Hg10 mi
8:00 PM66 °FClear.7 mph78%30.04 "Hg10 mi
7:30 PM68 °FClear.8 mph73%30.04 "Hg10 mi
7:00 PM68 °FClear.10 mph73%30.04 "Hg10 mi
6:30 PM68 °FClear.8 mph69%30.04 "Hg10 mi
6:00 PM66 °FClear.10 mph73%30.04 "Hg10 mi
5:30 PM68 °FClear.10 mph69%30.01 "Hg10 mi
5:00 PM70 °FClear.13 mph60%30.01 "Hg10 mi
4:30 PM68 °FClear.15 mph60%30.01 "Hg10 mi
4:00 PM70 °FSunny.16 mph57%30.01 "Hg10 mi
3:30 PM72 °FSunny.16 mph50%30.01 "Hg10 mi
3:00 PM72 °FSunny.16 mph47%30.01 "Hg10 mi
2:30 PM73 °FSunny.12 mph44%30.01 "Hg10 mi
2:00 PM75 °FSunny.8 mph41%30.01 "Hg10 mi
1:30 PM73 °FPassing clouds.6 mph41%30.04 "HgN/A
1:00 PM75 °FSunny.8 mph36%30.04 "Hg10 mi
12:00 PM72 °FPassing clouds.7 mph41%30.07 "HgN/A
11:30 AM73 °FPassing clouds.6 mph36%30.09 "HgN/A
11:00 AM70 °FSunny.8 mph38%30.09 "Hg10 mi
10:30 AM70 °FSunny.9 mph35%30.12 "Hg10 mi
10:00 AM68 °FSunny.8 mph40%30.12 "Hg10 mi
9:30 AM68 °FSunny.8 mph40%30.12 "Hg10 mi
9:00 AM64 °FSunny.7 mph43%30.12 "Hg10 mi
8:30 AM63 °FPassing clouds.9 mph49%30.12 "HgN/A
8:00 AM63 °FPassing clouds.8 mph49%30.12 "HgN/A
Weather by CustomWeather, © 2016

See weather overviewHow to use our weather pages